Skip Page Navigation
NASA JPL Caltech
NASA Logo - Jet Propulsion Laboratory + View the NASA Portal
+ Near-Earth Object (NEO) Program
Search JPL
JPL Home Earth Solar System Stars & Galaxies Technology
JPL Solar System Dynamics
BODIES ORBITS EPHEMERIDES TOOLS PHYSICAL DATA DISCOVERY FAQ SITE MAP
JPL Small-Body Database Browser
Search: [ help ]  
78661 Castelfranco (2002 TW85)
Classification: Main-belt Asteroid          SPK-ID: 2078661
Ephemeris | Orbit Diagram | Orbital Elements | Physical Parameters | Discovery Circumstances | Close-Approach Data ]

[ show orbit diagram ]
Orbital Elements at Epoch 2456800.5 (2014-May-23.0) TDB
Reference: JPL 10 (heliocentric ecliptic J2000)
 Element Value Uncertainty (1-sigma)   Units 
e .03403325102464002 7.0615e-08  
a 2.335701013605624 2.3696e-08 AU
q 2.256209514691077 1.6776e-07 AU
i 2.638303893129805 7.5545e-06 deg
node 274.1390386799383 0.00014767 deg
peri 284.189568893644 0.00019636 deg
M 267.0593346784258 0.00013459 deg
tp 2457137.110436483174
(2015-Apr-24.61043648)
0.0004893 JED
period 1303.840000656992
3.57
1.9841e-05
5.432e-08
d
yr
n .2761074977133695 4.2017e-09 deg/d
Q 2.41519251252017 2.4502e-08 AU
  Orbit Determination Parameters
   # obs. used (total)      470  
   data-arc span      6201 days (16.98 yr)  
   first obs. used      1997-04-02  
   last obs. used      2014-03-25  
   planetary ephem.      DE431  
   SB-pert. ephem.      SB431-BIG16  
   condition code      0  
   fit RMS      .5679  
   data source      ORB  
   producer      Otto Matic  
   solution date      2014-Jun-10 14:55:50  

Additional Information
 Earth MOID = 1.25469 AU 
 T_jup = 3.566 
[ show covariance matrix ]

Ephemeris | Orbit Diagram | Orbital Elements | Physical Parameters | Discovery Circumstances | Close-Approach Data ]

Physical Parameter Table
Parameter Symbol Value Units Sigma Reference Notes
absolute magnitude H 15.8 mag n/a MPO266289  

78661 Castelfranco           Discovered 2002 Oct. 2 by CINEOS at Campo Imperatore.
Castelfranco Veneto, a town in the Venetian plain, is famous as the home of Giorgione, a painter of the Venetian School. The twelfth-century castle is still well preserved.
NOTE: some special characters may not display properly (any characters within {} are an attempt to place the proper accent above a character)
Reference: 20080618/MPCPages.arcLast Updated: 2008-06-20

[ show close-approach data ]
Ephemeris | Orbit Diagram | Orbital Elements | Physical Parameters | Discovery Circumstances | Close-Approach Data ]
ABOUT SSD CREDITS/AWARDS PRIVACY/COPYRIGHT GLOSSARY LINKS
FirstGov 2014-Jul-28 04:14 UT
(server date/time)  
NASA Home Page
Site Manager:   Donald K. Yeomans
Webmaster  Alan B. Chamberlin